Flag for Germany Weather past 2 weeks in Saarbrücken, Saarland, Germany

Now
73 °F

Partly sunny.


Feels Like: 77 °F
Forecast: 52 / 68 °F
Wind: 10 mph from West

Location: Saarbruecken / Ensheim

Current Time: Aug 29, 2014 at 5:05:14 PM

Latest Report: Aug 29, 2014 at 4:20 PM


Visibility: N/A

Pressure: 30.04 "Hg

Humidity: 53%

Dew point: 55 °F

Location of SaarbrückenLocation

Historic Weather in Saarbrücken — Graph

°F

Saarbrücken temperature yesterday

Maximum temperature yesterday: 70 °F (at 12:20 PM)
Minimum temperature yesterday: 54 °F (at 4:20 AM)
Average temperature yesterday: 63 °F

Past Weeks' High & Low Weather Summary

 TemperatureHumidityPressure
High72 °F (Aug 29, 2:20 PM)100% (Aug 16, 1:20 AM)30.15 "Hg (Aug 16, 1:20 AM)
Low41 °F (Aug 24, 5:50 AM)42% (Aug 21, 2:20 PM)29.65 "Hg (Aug 26, 4:50 AM)
Average57 °F79%29.99 "Hg
* Reported Aug 14 3:20 PM — Aug 29 3:50 PM, Saarbrücken, Weather by CustomWeather, © 2014

Note: Actual official high and low records may vary slightly from our data, if they occured in-between our weather recording intervals... More about our weather records

Advertising

Saarbrücken weather history for previous 24 hours

 ConditionsComfort  
Time TempWeatherWind HumidityBarometerVisibility
3:50 PM
Aug 29
72 °FPartly sunny.7 mph57%30.04 "HgN/A
3:20 PM70 °FScattered clouds.9 mph60%30.04 "HgN/A
2:50 PM72 °FScattered clouds.8 mph57%30.04 "HgN/A
2:20 PM72 °FScattered clouds.10 mph57%30.07 "HgN/A
1:50 PM70 °FScattered clouds.8 mph60%30.07 "HgN/A
1:20 PM70 °FMild.9 mph64%30.07 "HgN/A
12:50 PM70 °FPassing clouds.5 mph64%30.07 "HgN/A
12:20 PM68 °FPassing clouds.7 mph69%30.07 "HgN/A
11:50 AM68 °FPassing clouds.7 mph69%30.07 "HgN/A
11:20 AM66 °FPassing clouds.3 mph73%30.07 "HgN/A
10:50 AM64 °FPassing clouds.3 mph83%30.07 "HgN/A
10:20 AM63 °FScattered clouds.3 mph83%30.07 "HgN/A
9:50 AM61 °FScattered clouds.5 mph88%30.07 "HgN/A
9:20 AM61 °FPartly sunny.2 mph88%30.07 "HgN/A
8:50 AM59 °FLow clouds.3 mph94%30.07 "HgN/A
8:20 AM59 °FPartly sunny.2 mph94%30.04 "HgN/A
7:50 AM57 °FBroken clouds.2 mph94%30.04 "HgN/A
7:20 AM57 °FPassing clouds.5 mph94%30.04 "HgN/A
6:50 AM57 °FPartly cloudy.1 mph94%30.04 "HgN/A
6:20 AM59 °FClear.2 mph88%30.04 "Hg10 mi
5:50 AM59 °FLight rain. Clear.6 mph88%30.04 "HgN/A
5:20 AM59 °FPassing clouds.3 mph88%30.04 "HgN/A
4:50 AM59 °FClear.6 mph88%30.04 "Hg10 mi
4:20 AM59 °FClear.8 mph88%30.04 "Hg10 mi
3:50 AM59 °FClear.6 mph88%30.04 "Hg10 mi
3:20 AM59 °FClear.7 mph88%30.04 "Hg10 mi
2:50 AM61 °FClear.8 mph83%30.01 "Hg10 mi
2:20 AM61 °FPassing clouds.7 mph83%30.01 "HgN/A
1:50 AM61 °FPassing clouds.7 mph83%30.04 "HgN/A
1:20 AM63 °FPassing clouds.7 mph83%30.04 "HgN/A
12:50 AM64 °FPassing clouds.9 mph83%30.04 "HgN/A
12:20 AM64 °FPassing clouds.10 mph83%30.01 "HgN/A
11:50 PM
Aug 28
66 °FPassing clouds.8 mph78%30.01 "HgN/A
11:20 PM66 °FPassing clouds.7 mph78%30.01 "HgN/A
10:50 PM66 °FPassing clouds.2 mph78%30.01 "HgN/A
10:20 PM66 °FPartly cloudy.2 mph78%30.01 "HgN/A
9:50 PM66 °FPassing clouds.5 mph78%30.01 "HgN/A
9:20 PM66 °FBroken clouds.5 mph78%30.01 "HgN/A
8:50 PM66 °FPartly sunny.5 mph78%30.01 "HgN/A
8:20 PM68 °FPartly sunny.3 mph73%30.01 "HgN/A
7:50 PM68 °FBroken clouds.3 mph69%30.01 "HgN/A
7:20 PM70 °FPartly sunny.8 mph64%30.01 "HgN/A
6:50 PM70 °FPartly sunny.6 mph69%30.01 "HgN/A
6:20 PM70 °FPartly sunny.7 mph64%30.01 "HgN/A
5:50 PM70 °FScattered clouds.7 mph69%30.01 "HgN/A
5:20 PM70 °FPartly sunny.12 mph64%30.04 "HgN/A
Weather by CustomWeather, © 2014

See weather overviewHow to use our weather pages